星链-32268 (STARLINK-32268)

导读

STARLINK-32268是美国SpaceX公司星链(Starlink)互联网星座的成员卫星,于2024年8月4日发射入轨。星链项目旨在通过部署近地轨道卫星网络,为全球尤其是基础设施匮乏地区提供高速、低延迟的宽带互联网服务。该卫星的成功入轨,进一步扩充了星链星座的规模,推动全球卫星互联网覆盖能力持续提升,助力偏远地区网络接入与全球互联互通建设。

Basic Information
目录编号:
60372
目录名称:
STARLINK-32268
国际标识:
2024-138T
轨道中心:
EARTH
卫星名称:
星链-32268 (STARLINK-32268)
卫星全名:
星链-32268 (STARLINK-32268)
卫星状态:
在轨 (已飞行682 天)
发射日期:
2024-08-04 UTC
国别 :
美国 (US)
星等 :
--
Orbit Information
数据来源 国际轨道数据 AOE轨道数据
星历时间 2026-06-17T18:14:22+0800
7小时前
查看轨道信息
2026-06-17T03:00:00+0800
23小时前
查看轨道信息
半长轴 6853.385km 6853.37km
偏心率 0.0000829 0.0001145
轨道倾角 53.159° 53.157°
近地点辐角 80.258° 94.968°
升交点赤经 206.632° 209.583°
平近点角 279.851° 5.284°
近地点 474.679km 474.448km
远地点 475.817km 476.018km
周期 94.106分钟 94.106分钟
每日圈数 15.301892 15.301943
Detailed Information
卫星平台:
Starlink v2.0 mini
运营商:
太空探索技术公司
运营商所在国:
美国
制造商(研发单位):
太空探索技术公司
制造商所在国:
美国
使用方式:
暂无
Satellite Introduction
星链(Starlink)计划是由太空探索技术公司(SpaceX)提出的一个巨型低轨卫星互联网星座项目,计划在2019年至2024年间在太空搭建由约1.2万颗卫星组成的“星链”网络,其中1584颗将部署在地球上空550千米处的近地轨道,并从2020年开始工作。该卫星仍在工作。
2D Orbit Map
3D Orbit Map
Orbit Altitude Analysis Chart
Orbit Inclination Analysis Chart
Orbit Comprehensive Analysis Chart
View Comprehensive Chart